DL2AMT-9 Weather Reports


time (UTC)temp
C
wind
direction
speed
KPH
gust
KPH
rain 1hr
cm
rain 24hr
cm
rain mn
cm
humidity
%
barometer
mb
20260506145127 25 0.0 0.0 0.00 0.00 0.00 35 960.0
20260506144627 26 0.0 0.0 0.00 0.00 0.00 34 960.0
20260506144127 27 0.0 0.0 0.00 0.00 0.00 34 960.1
20260506143627 27 0.0 0.0 0.00 0.00 0.00 33 960.0
20260506143127 28 0.0 0.0 0.00 0.00 0.00 32 960.0
20260506142617 30 0.0 0.0 0.00 0.00 0.00 32 960.0
20260506142117 31 0.0 0.0 0.00 0.00 0.00 33 960.0
20260506141617 31 0.0 0.0 0.00 0.00 0.00 38 959.8
20260506141117 29 0.0 0.0 0.00 0.00 0.00 40 959.8
20260506140616 28 0.0 0.0 0.00 0.00 0.00 37 959.7
20260506140116 27 0.0 0.0 0.00 0.00 0.00 38 959.8
20260506135612 27 0.0 0.0 0.00 0.00 0.00 39 959.8
20260506135112 27 0.0 0.0 0.00 0.00 0.00 38 960.0
20260506134612 27 0.0 0.0 0.00 0.00 0.00 39 960.0
20260506134111 27 0.0 0.0 0.00 0.00 0.00 39 960.0
20260506133611 27 0.0 0.0 0.00 0.00 0.00 38 959.9
20260506133111 27 0.0 0.0 0.00 0.00 0.00 39 960.0
20260506132611 27 0.0 0.0 0.00 0.00 0.00 38 960.0
20260506132111 27 0.0 0.0 0.00 0.00 0.00 38 960.1
20260506131557 27 0.0 0.0 0.00 0.00 0.00 39 960.1
20260506131057 27 0.0 0.0 0.00 0.00 0.00 38 960.0
20260506130557 27 0.0 0.0 0.00 0.00 0.00 39 960.0
20260506130057 27 0.0 0.0 0.00 0.00 0.00 39 960.0
20260506125557 27 0.0 0.0 0.00 0.00 0.00 39 960.1
20260506125057 27 0.0 0.0 0.00 0.00 0.00 39 960.0
20260506124557 27 0.0 0.0 0.00 0.00 0.00 38 960.1
20260506124057 27 0.0 0.0 0.00 0.00 0.00 38 960.1
20260506123557 27 0.0 0.0 0.00 0.00 0.00 39 960.1
20260506123057 27 0.0 0.0 0.00 0.00 0.00 39 960.1
20260506122557 27 0.0 0.0 0.00 0.00 0.00 39 960.1
20260506122057 27 0.0 0.0 0.00 0.00 0.00 38 960.1
20260506121557 27 0.0 0.0 0.00 0.00 0.00 38 960.1
20260506121057 27 0.0 0.0 0.00 0.00 0.00 39 960.2
20260506120557 27 0.0 0.0 0.00 0.00 0.00 38 960.1
20260506120057 27 0.0 0.0 0.00 0.00 0.00 39 960.2
20260506115557 27 0.0 0.0 0.00 0.00 0.00 39 960.1
20260506115057 27 0.0 0.0 0.00 0.00 0.00 39 960.0
20260506114557 27 0.0 0.0 0.00 0.00 0.00 39 960.1
20260506114057 27 0.0 0.0 0.00 0.00 0.00 39 960.1
20260506113557 27 0.0 0.0 0.00 0.00 0.00 40 960.0
20260506113057 27 0.0 0.0 0.00 0.00 0.00 40 960.1
20260506112557 27 0.0 0.0 0.00 0.00 0.00 40 960.1
20260506112057 27 0.0 0.0 0.00 0.00 0.00 41 960.1
20260506111557 27 0.0 0.0 0.00 0.00 0.00 42 960.2
20260506111057 27 0.0 0.0 0.00 0.00 0.00 44 960.1
20260506062413 28 0.0 0.0 0.00 0.00 0.00 41 959.8
20260506061049 28 0.0 0.0 0.00 0.00 0.00 39 959.9
20260506060548 28 0.0 0.0 0.00 0.00 0.00 39 959.8
20260505173309 30 0.0 0.0 0.00 0.00 0.00 37 960.7
20260505172809 30 0.0 0.0 0.00 0.00 0.00 37 960.8
20260505172310 30 0.0 0.0 0.00 0.00 0.00 35 960.7
20260505171809 30 0.0 0.0 0.00 0.00 0.00 35 960.7
20260505171309 29 0.0 0.0 0.00 0.00 0.00 35 960.6
20260505170809 29 0.0 0.0 0.00 0.00 0.00 34 960.6
20260505170309 29 0.0 0.0 0.00 0.00 0.00 34 960.6
20260505165809 29 0.0 0.0 0.00 0.00 0.00 34 960.7
20260505165309 29 0.0 0.0 0.00 0.00 0.00 34 960.7
20260505164809 29 0.0 0.0 0.00 0.00 0.00 34 960.7
20260505164309 30 0.0 0.0 0.00 0.00 0.00 35 960.8
20260505163809 30 0.0 0.0 0.00 0.00 0.00 34 960.8
20260505163309 30 0.0 0.0 0.00 0.00 0.00 35 961.0
20260505162809 30 0.0 0.0 0.00 0.00 0.00 33 960.9
20260505162308 30 0.0 0.0 0.00 0.00 0.00 33 961.0
20260505161808 30 0.0 0.0 0.00 0.00 0.00 32 961.1
20260505161308 30 0.0 0.0 0.00 0.00 0.00 32 961.1
20260505160808 31 0.0 0.0 0.00 0.00 0.00 31 961.2
20260505160308 32 0.0 0.0 0.00 0.00 0.00 30 961.2